Date String (YYYY-MM-DD hh:mm:ss) UTC,Instrument flags,Ambient pressure (hPa),Sample flow (lpm),Bypass flow (lpm),Sample temperature (°C),Ambient temperature (°C),ASC tube jacket temperature (°C),LED temperature (°C),Box temperature (°C),Sample RH (%),Span deviation,Mass concentration (μg/m³),Mass concentration (μg/m³),Mass concentration (μg/m³)
DateTimeUTC,F1_M11,P_M11,Q1_M11,Q2_M11,T1_M11,T2_M11,T3_M11,T4_M11,T5_M11,U1_M11,ZSPAN_M11,X0_M11,X2_M11,X1_M11
2022-10-21 00:00:00,,0822.6,4.99,0.00,29.7,28.6,00.0,38.3,31.7,07.1,0000.0,0005.12,0001.59,0001.08
2022-10-21 00:01:00,,0822.6,5.00,0.00,29.7,28.7,00.0,38.4,31.7,07.1,0000.0,0005.32,0001.59,0001.08
2022-10-21 00:02:00,,0822.6,5.00,0.00,29.7,28.7,00.0,38.4,31.7,07.1,0000.0,0005.40,0001.54,0001.08
2022-10-21 00:03:00,,0822.6,4.97,0.00,29.8,28.2,00.0,38.4,31.7,07.1,0000.0,0005.60,0001.56,0001.07
2022-10-21 00:04:00,,0822.6,4.99,0.00,29.7,26.8,00.0,38.4,31.6,07.2,0000.0,0005.18,0001.58,0001.08
2022-10-21 00:05:00,,0822.6,5.00,0.00,29.7,26.6,00.0,38.3,31.6,07.2,0000.0,0004.02,0001.58,0001.08
2022-10-21 00:06:00,,0822.6,5.01,0.00,29.6,26.8,00.0,38.3,31.4,07.3,0000.0,0004.34,0001.60,0001.09
2022-10-21 00:07:00,,0822.6,5.00,0.00,29.6,27.1,00.0,38.3,31.4,07.4,0000.0,0004.96,0001.57,0001.09
2022-10-21 00:08:00,,0822.6,5.00,0.00,29.6,27.4,00.0,38.3,31.5,07.4,0000.0,0006.71,0001.64,0001.10
2022-10-21 00:09:00,,0822.5,5.01,0.00,29.6,27.7,00.0,38.3,31.5,07.4,0000.0,0006.98,0001.67,0001.10
2022-10-21 00:10:00,,0822.6,5.02,0.00,29.6,27.9,00.0,38.3,31.5,07.5,0000.0,0006.95,0001.71,0001.10
2022-10-21 00:11:00,,0822.6,4.98,0.00,29.6,28.0,00.0,38.3,31.6,07.5,0000.0,0007.21,0001.75,0001.11
2022-10-21 00:12:00,,0822.6,5.00,0.00,29.6,28.2,00.0,38.4,31.6,07.4,0000.0,0007.94,0001.84,0001.11
2022-10-21 00:13:00,,0822.6,5.02,0.00,29.6,28.3,00.0,38.4,31.6,07.5,0000.0,0008.08,0001.94,0001.11
2022-10-21 00:14:00,,0822.5,5.00,0.00,29.7,28.4,00.0,38.4,31.7,07.5,0000.0,0008.00,0001.95,0001.13
2022-10-21 00:15:00,,0822.6,5.00,0.00,29.7,28.5,00.0,38.4,31.7,07.5,0000.0,0007.79,0001.96,0001.15
2022-10-21 00:16:00,,0822.6,5.01,0.00,29.7,28.6,00.0,38.4,31.7,07.5,0000.0,0007.73,0001.96,0001.16
2022-10-21 00:17:00,,0822.5,4.99,0.00,29.7,28.7,00.0,38.5,31.8,07.5,0000.0,0007.67,0002.01,0001.17
2022-10-21 00:18:00,,0822.6,4.99,0.00,29.8,28.7,00.0,38.5,31.8,07.5,0000.0,0007.49,0002.06,0001.18
2022-10-21 00:19:00,,0822.6,4.99,0.00,29.8,28.2,00.0,38.5,31.7,07.5,0000.0,0006.88,0001.99,0001.17
2022-10-21 00:20:00,,0822.6,4.99,0.00,29.8,26.8,00.0,38.4,31.6,07.6,0000.0,0006.57,0001.97,0001.16
2022-10-21 00:21:00,,0822.6,4.97,0.00,29.7,26.5,00.0,38.4,31.5,07.6,0000.0,0006.72,0001.96,0001.16
2022-10-21 00:22:00,,0822.6,5.01,0.00,29.7,26.7,00.0,38.4,31.4,07.7,0000.0,0006.64,0001.95,0001.15
2022-10-21 00:23:00,,0822.6,5.00,0.00,29.6,27.0,00.0,38.4,31.4,07.7,0000.0,0005.45,0001.88,0001.15
2022-10-21 00:24:00,,0822.6,5.02,0.00,29.6,27.3,00.0,38.4,31.4,07.7,0000.0,0004.97,0001.77,0001.15
2022-10-21 00:25:00,,0822.6,5.01,0.00,29.6,27.6,00.0,38.4,31.4,07.8,0000.0,0004.81,0001.70,0001.13
2022-10-21 00:26:00,,0822.5,4.99,0.00,29.6,27.8,00.0,38.4,31.5,07.8,0000.0,0004.73,0001.65,0001.12
2022-10-21 00:27:00,,0822.6,4.98,0.00,29.6,28.0,00.0,38.4,31.5,07.8,0000.0,0004.83,0001.67,0001.12
2022-10-21 00:28:00,,0822.6,5.01,0.00,29.6,28.1,00.0,38.4,31.6,07.8,0000.0,0005.40,0001.70,0001.12
2022-10-21 00:29:00,,0822.6,4.99,0.00,29.6,28.2,00.0,38.4,31.6,07.9,0000.0,0005.65,0001.68,0001.11
2022-10-21 00:30:00,,0822.6,4.99,0.00,29.7,28.4,00.0,38.4,31.7,07.9,0000.0,0004.74,0001.68,0001.12
2022-10-21 00:31:00,,0822.6,5.00,0.00,29.7,28.4,00.0,38.4,31.7,07.9,0000.0,0004.91,0001.75,0001.14
2022-10-21 00:32:00,,0822.6,5.02,0.00,29.7,28.5,00.0,38.5,31.7,07.9,0000.0,0004.75,0001.75,0001.14
2022-10-21 00:33:00,,0822.6,5.01,0.00,29.8,28.6,00.0,38.5,31.7,07.9,0000.0,0004.29,0001.70,0001.14
2022-10-21 00:34:00,,0822.7,5.00,0.00,29.8,28.7,00.0,38.5,31.7,07.9,0000.0,0005.32,0001.71,0001.14
2022-10-21 00:35:00,,0822.6,4.99,0.00,29.8,28.7,00.0,38.5,31.8,07.9,0000.0,0005.34,0001.76,0001.15
2022-10-21 00:36:00,,0822.6,5.02,0.00,29.8,28.7,00.0,38.5,31.9,07.9,0000.0,0005.50,0001.81,0001.17
2022-10-21 00:37:00,,0822.6,5.00,0.00,29.8,27.6,00.0,38.5,31.7,07.9,0000.0,0005.75,0001.86,0001.18
2022-10-21 00:38:00,,0822.6,5.03,0.00,29.8,26.7,00.0,38.5,31.6,07.9,0000.0,0006.01,0001.89,0001.17
2022-10-21 00:39:00,,0822.6,4.98,0.00,29.8,26.6,00.0,38.4,31.5,08.0,0000.0,0005.77,0001.81,0001.18
2022-10-21 00:40:00,,0822.6,5.01,0.00,29.7,26.9,00.0,38.4,31.4,08.1,0000.0,0005.65,0001.75,0001.18
2022-10-21 00:41:00,,0822.6,5.01,0.00,29.6,27.2,00.0,38.4,31.4,08.1,0000.0,0006.27,0001.77,0001.19
2022-10-21 00:42:00,,0822.6,5.02,0.00,29.6,27.4,00.0,38.4,31.4,08.1,0000.0,0006.76,0001.74,0001.20
2022-10-21 00:43:00,,0822.6,5.00,0.00,29.6,27.7,00.0,38.4,31.5,08.1,0000.0,0007.52,0001.70,0001.19
2022-10-21 00:44:00,,0822.6,4.98,0.00,29.6,27.9,00.0,38.4,31.5,08.1,0000.0,0008.38,0001.70,0001.19
2022-10-21 00:45:00,,0822.6,5.00,0.00,29.6,28.0,00.0,38.4,31.5,08.1,0000.0,0008.05,0001.67,0001.19
2022-10-21 00:46:00,,0822.6,4.98,0.00,29.6,28.1,00.0,38.4,31.6,08.1,0000.0,0008.65,0001.69,0001.19
2022-10-21 00:47:00,,0822.7,5.01,0.00,29.7,28.2,00.0,38.4,31.6,08.1,0000.0,0009.33,0001.72,0001.18
2022-10-21 00:48:00,,0822.7,5.00,0.00,29.7,28.3,00.0,38.4,31.6,08.1,0000.0,0009.34,0001.69,0001.17
2022-10-21 00:49:00,,0822.7,5.00,0.00,29.7,28.4,00.0,38.5,31.7,08.1,0000.0,0009.66,0001.68,0001.18
2022-10-21 00:50:00,,0822.7,5.01,0.00,29.7,28.4,00.0,38.5,31.7,08.1,0000.0,0009.59,0001.70,0001.19
2022-10-21 00:51:00,,0822.7,4.98,0.00,29.8,28.5,00.0,38.5,31.7,08.1,0000.0,0009.56,0001.78,0001.19
2022-10-21 00:52:00,,0822.8,4.98,0.00,29.8,28.5,00.0,38.5,31.8,08.1,0000.0,0009.13,0001.82,0001.20
2022-10-21 00:53:00,,0822.8,4.98,0.00,29.8,28.6,00.0,38.5,31.7,08.1,0000.0,0009.30,0001.84,0001.20
2022-10-21 00:54:00,,0822.8,5.00,0.00,29.8,28.7,00.0,38.6,31.8,08.1,0000.0,0008.85,0001.92,0001.21
2022-10-21 00:55:00,,0822.8,4.99,0.00,29.8,28.7,00.0,38.6,31.8,08.0,0000.0,0008.21,0001.98,0001.22
2022-10-21 00:56:00,,0822.8,5.01,0.00,29.9,28.5,00.0,38.6,31.8,08.0,0000.0,0008.07,0002.05,0001.24
2022-10-21 00:57:00,,0822.8,5.02,0.00,29.9,27.1,00.0,38.5,31.7,08.1,0000.0,0007.75,0002.06,0001.24
2022-10-21 00:58:00,,0822.7,5.00,0.00,29.8,26.4,00.0,38.5,31.6,08.1,0000.0,0006.40,0002.05,0001.26
2022-10-21 00:59:00,,0822.8,5.00,0.00,29.7,26.5,00.0,38.5,31.4,08.1,0000.0,0005.96,0002.01,0001.27
